Temperature
21 21 20 20 20 20 20 20 20 20 19 19 19 19 19 19 19 19 18 18 18 18 18 18 18 18 18 18 18 18 18 18 17 17 17 17 17 17 17 17 17 17 17
21 21 20 20 20 20 20 20 20 19 19 19 19 19 19 19 19 18 18 18 18 18 18 18 18 18 18 18 18 17 17 17 17 17 17 17 17 17 17 16 16 16 16
21 20 20 20 20 20 20 20 20 19 19 19 19 19 19 19 18 18 18 18 18 18 18 18 18 18 18 17 17 17 17 17 17 17 17 17 17 17 16 16 16 16 16
21 20 20 20 19 19 19 19 19 19 19 19 19 19 19 18 18 18 18 18 18 18 17 17 17 17 18 18 17 17 17 17 17 17 17 17 16 16 16 16 16 16 15
21 20 20 20 19 19 19 19 19 19 19 19 18 18 18 18 18 18 18 17 17 17 17 17 17 17 17 17 17 17 17 17 17 17 16 16 16 16 16 16 16 15 15
20 20 19 19 19 19 19 19 18 18 18 18 18 18 18 18 18 18 18 17 17 17 17 17 17 17 17 17 17 17 17 17 16 16 16 16 16 16 16 16 15 15 15
20 19 19 19 19 19 18 18 18 18 18 18 18 17 17 18 17 17 17 17 17 17 17 17 16 16 16 16 16 16 16 16 16 16 16 16 16 16 16 15 15 15 15
19 19 19 19 18 18 18 18 18 18 18 18 17 17 17 17 17 17 17 17 17 16 16 16 16 16 16 16 16 16 16 16 16 16 16 16 16 15 15 15 15 15 15
18 18 18 18 18 18 18 18 17 17 17 17 17 17 17 17 17 17 16 16 16 16 16 16 16 16 16 16 16 15 16 16 15 15 15 15 15 15 15 15 15 14 14
18 17 17 17 17 17 17 17 17 17 17 16 16 16 16 16 16 16 16 15 15 15 15 15 15 15 15 15 15 15 15 15 15 15 15 15 15 15 15 14 14 14 14
17 17 17 17 17 17 16 16 16 16 16 16 16 16 16 16 16 16 15 15 15 14 14 14 15 15 15 15 15 15 15 15 15 15 15 15 15 14 14 14 14 14 14
16 16 16 16 16 16 16 16 16 16 16 16 15 15 15 15 15 15 15 15 14 14 14 14 14 15 15 15 15 14 14 14 14 14 14 14 14 14 14 14 14 14 14
16 16 16 16 16 16 15 15 15 15 15 15 15 15 15 14 14 14 14 14 14 14 14 14 14 14 14 14 14 14 14 14 14 13 13 14 14 14 13 13 13 13 13
15 15 15 15 15 15 15 15 15 15 14 14 14 14 14 14 14 14 14 13 13 13 13 13 13 13 13 14 14 13 13 13 13 13 13 13 13 13 13 13 13 13 13
14 14 14 14 14 14 14 14 14 14 14 14 14 13 13 13 13 13 13 13 13 13 13 13 13 12 12 12 13 13 13 13 13 12 12 13 13 13 13 12 12 12 12
14 13 13 13 14 14 14 14 14 14 14 14 13 13 13 13 13 13 13 13 13 13 12 12 12 12 12 12 12 12 12 12 12 12 12 12 12 12 12 12 12 12 12
13 13 13 13 13 13 13 13 13 13 13 13 13 13 13 13 12 12 12 12 12 12 12 12 12 12 12 12 12 12 12 12 12 12 12 12 12 12 12 12 12 12 11
13 13 13 13 13 13 13 13 13 13 13 13 13 12 12 12 12 12 12 12 12 12 12 12 11 12 12 11 11 11 11 11 11 11 11 11 11 11 11 11 11 11 11
12 12 12 12 12 12 12 12 12 12 12 12 12 12 12 11 11 11 11 11 11 11 11 11 11 11 11 11 11 11 11 11 11 10 10 10 11 11 11 11 11 11 11
12 12 12 12 12 12 12 12 12 12 11 11 11 11 11 11 10 11 11 10 10 10 10 10 10 10 10 10 10 10 10 10 10 10 10 10 10 10 10 10 10 10 10
11 12 12 11 11 11 11 11 11 11 11 11 11 10 10 10 10 10 10 10 10 10 10 10 10 10 10 10 9 9 9 9 9 9 9 9 9 10 10 10 10 10 10
11 11 11 11 11 11 11 11 11 11 10 10 10 10 10 10 10 10 10 10 10 9 9 9 9 9 9 9 9 9 9 9 9 9 9 9 9 9 9 9 9 9 9
11 11 11 11 11 11 10 10 10 10 10 10 10 10 10 10 9 9 9 9 9 9 9 9 9 9 9 9 9 9 8 8 8 8 8 8 9 9 9 9 9 9 9
10 11 11 10 10 10 10 10 10 10 10 9 9 9 9 9 9 9 9 9 9 9 8 8 8 8 8 8 8 8 8 8 8 8 8 8 8 8 8 8 8 8 8
10 10 10 10 10 10 10 10 9 9 9 9 9 9 9 9 9 9 8 8 8 8 8 8 8 8 8 8 8 7 7 7 7 7 7 7 7 7 7 7 7 7 8
10 10 10 10 10 10 9 9 9 9 9 9 9 9 8 8 8 8 8 8 8 8 8 7 7 7 7 7 7 7 7 7 7 7 7 7 7 7 7 7 7 7 7
Wind_Speed
11 10 8 9 8 7 5 5 5 4 4 4 4 5 6 6 6 5 6 5 6 5 5 5 5 4 3 3 3 3 3 3 3 2 1 2 2 2 3 3 4 6 8
10 9 8 8 8 8 7 5 5 5 5 5 5 6 6 6 5 6 7 6 6 6 5 5 5 4 4 4 3 3 3 3 4 4 3 3 3 3 3 3 3 5 7
9 9 8 8 8 8 7 6 6 5 5 5 6 6 6 5 5 6 6 6 6 6 6 5 5 4 4 4 4 4 4 4 3 4 3 2 2 2 2 3 3 3 5
8 8 8 7 7 6 6 6 5 5 5 5 5 5 5 5 5 5 5 5 5 5 5 5 5 5 5 5 4 4 4 4 3 3 3 2 2 2 3 3 3 3 3
6 6 5 5 4 4 5 4 4 4 5 4 5 5 5 5 5 5 5 6 5 5 5 4 5 5 6 5 5 3 4 3 3 3 3 2 2 2 3 4 4 3 3
4 4 4 3 4 4 3 3 3 3 4 4 4 5 5 4 3 3 4 4 4 5 5 4 5 5 6 7 7 6 5 5 5 4 3 3 3 3 3 4 3 3 3
3 3 3 3 3 2 3 3 4 4 4 4 4 4 3 3 3 3 4 4 4 4 4 4 5 5 5 5 6 7 7 8 7 5 4 4 4 3 4 4 4 4 4
2 2 2 2 2 2 3 3 3 3 3 4 4 4 3 3 3 3 4 5 5 5 5 5 4 4 4 3 5 5 4 5 7 6 5 5 4 4 4 5 5 5 4
2 2 2 2 2 2 2 2 2 2 2 3 3 3 2 2 3 3 4 4 5 5 5 4 4 4 3 3 4 4 4 4 5 7 7 7 7 6 5 3 3 3 4
1 1 2 2 1 1 1 1 1 1 2 2 2 2 2 2 3 3 3 3 4 4 3 3 3 3 2 2 3 4 5 5 4 5 5 5 6 6 7 5 4 4 3
2 2 1 1 0 0 1 1 1 2 2 2 2 2 3 3 2 2 2 2 3 3 3 3 3 3 3 3 4 4 5 4 4 5 4 4 4 4 4 5 4 4 4
3 2 2 2 1 1 1 1 1 2 2 2 2 2 2 2 3 2 3 4 4 4 3 2 2 3 4 5 5 5 6 5 4 4 3 4 4 3 3 4 5 5 4
2 2 1 1 1 1 1 2 1 2 2 2 2 2 2 2 2 3 4 4 4 3 3 2 2 4 4 5 7 7 6 4 4 4 4 4 3 3 3 3 3 4 4
1 0 0 0 0 0 1 2 2 1 1 1 2 2 2 1 0 0 1 2 3 3 3 3 4 5 5 5 5 5 5 4 4 4 3 3 2 3 3 3 3 3 3
0 1 1 1 1 0 1 2 1 1 1 2 2 2 2 2 1 2 1 2 3 3 3 3 4 3 4 4 3 3 3 3 3 3 3 3 3 3 3 3 3 3 3
0 1 2 2 1 1 0 1 4 2 1 1 2 3 2 2 2 3 3 4 5 4 3 4 5 5 4 4 4 3 3 3 3 3 3 3 3 3 3 3 3 3 3
0 2 2 2 1 1 1 1 0 1 1 1 1 1 2 2 2 3 4 5 6 3 3 5 4 4 4 3 3 3 3 3 3 3 3 2 3 3 3 3 2 2 3
1 2 2 1 2 2 1 1 1 1 1 1 1 0 1 2 2 3 4 3 3 3 3 3 3 3 3 3 2 2 2 2 2 2 2 2 2 3 3 2 2 2 3
2 2 2 2 2 2 2 1 1 1 1 1 1 1 1 2 2 3 2 2 3 3 2 1 1 1 1 1 1 1 1 2 2 2 2 2 2 2 3 3 2 3 3
1 1 2 3 3 2 2 2 2 1 1 0 1 1 1 1 1 2 2 2 3 2 2 1 1 1 1 1 0 1 2 2 2 2 2 2 2 2 2 3 3 3 3
2 2 2 3 2 2 2 2 2 2 2 1 1 1 1 2 2 2 2 2 3 2 2 1 1 1 0 1 1 1 2 2 1 1 1 2 2 2 3 3 3 3 2
3 2 2 2 1 1 2 2 2 2 2 2 2 2 2 3 3 2 2 2 2 2 1 1 1 1 1 1 1 1 1 1 2 2 2 2 2 3 3 3 2 3 2
3 2 1 1 1 0 1 2 2 2 2 2 3 2 2 2 2 2 2 1 1 1 1 1 1 1 1 1 2 2 1 1 2 2 2 2 3 3 3 3 3 4 3
2 2 2 1 1 1 1 2 2 2 2 2 3 3 2 2 2 1 1 1 1 1 1 1 1 1 2 2 2 2 2 2 3 2 3 3 4 3 3 2 3 3 3
2 1 1 1 1 1 1 2 2 2 2 2 2 2 2 2 2 1 1 1 1 1 1 1 1 1 2 2 2 2 3 3 3 4 4 4 3 3 3 3 3 3 3
2 1 1 1 1 1 1 1 1 2 2 2 2 2 2 2 2 1 1 1 1 1 1 1 1 1 1 1 2 3 3 3 4 4 4 3 3 2 3 2 3 3 3
Wind_Direction
187 188 191 187 195 197 203 205 203 205 202 195 208 219 212 208 211 214 222 213 216 218 220 214 220 232 239 247 237 233 234 234 237 244 209 189 180 190 174 195 174 177 191
184 185 190 187 187 193 201 204 203 204 203 205 214 224 222 214 211 219 229 222 217 216 220 222 227 230 233 254 254 248 240 230 221 231 225 203 200 196 183 199 190 195 187
180 181 184 190 192 195 197 198 203 206 210 216 218 220 224 221 216 225 232 229 226 221 218 220 227 229 242 243 241 245 247 246 225 225 232 209 196 184 181 204 216 207 209
172 181 188 194 194 194 197 199 203 205 211 217 223 225 225 227 224 224 231 230 233 233 229 224 223 223 236 241 243 245 249 253 245 233 231 211 185 183 195 217 229 216 218
161 174 186 190 186 194 197 196 199 203 214 215 225 230 226 230 232 227 227 228 230 238 237 224 223 222 225 229 239 232 235 237 240 239 235 212 203 189 213 224 230 218 213
147 157 157 167 172 184 189 186 194 211 222 220 221 226 227 232 219 224 233 239 232 237 243 233 228 219 219 218 225 225 224 230 236 238 233 220 221 223 221 231 230 227 231
113 121 142 163 175 182 196 190 199 209 217 222 222 228 229 233 231 223 234 244 240 236 241 247 252 241 225 227 228 225 228 231 234 237 243 246 237 227 228 239 240 239 240
121 133 139 158 167 181 196 204 211 214 217 229 228 228 228 239 237 229 232 231 241 240 238 237 238 252 257 250 241 237 234 237 233 230 238 252 250 239 229 230 239 244 242
115 95 86 100 149 190 211 222 222 215 214 224 228 221 227 249 251 238 236 238 236 239 239 244 229 230 254 251 240 241 238 243 241 236 229 230 230 227 223 224 233 242 255
93 86 89 82 86 222 196 224 224 211 216 222 227 221 222 235 245 240 243 246 243 243 235 229 220 221 237 232 237 246 245 243 245 244 240 235 226 225 215 218 229 236 258
66 67 72 73 55 163 144 171 211 224 209 212 224 227 221 216 211 211 216 248 268 262 249 240 231 214 224 229 239 242 247 259 258 248 238 233 231 226 211 212 221 224 235
63 59 46 33 329 36 80 227 213 228 242 219 226 248 236 194 186 208 220 242 273 282 278 278 257 217 217 228 236 250 253 257 260 256 247 242 237 229 220 216 215 217 227
63 58 35 25 21 22 305 272 242 217 240 247 235 238 244 228 194 198 208 231 253 264 289 313 274 229 216 228 236 246 252 243 245 247 248 244 237 226 215 214 213 211 228
94 67 293 217 222 278 284 283 283 276 247 255 274 275 276 262 298 74 243 255 255 255 261 264 247 243 243 240 236 238 233 234 236 245 251 250 234 226 224 216 220 222 226
44 306 284 271 245 336 343 339 312 326 264 248 267 268 272 283 317 334 309 287 278 270 256 239 233 233 229 228 226 223 226 229 237 245 248 245 236 235 234 220 223 234 237
320 288 289 282 245 170 103 24 27 6 30 201 241 257 280 290 300 301 303 293 286 272 240 236 231 231 227 224 224 223 227 236 242 246 244 243 240 234 237 234 225 223 234
269 285 291 296 288 274 249 227 269 351 10 340 264 242 230 272 315 311 305 304 299 274 237 238 232 232 230 229 228 227 231 236 245 253 250 246 247 242 237 235 228 224 231
300 302 299 283 276 282 284 282 278 276 308 340 336 235 225 255 282 295 297 307 298 268 248 244 236 233 231 232 233 234 238 234 242 255 251 246 247 243 243 238 226 230 243
321 319 333 320 304 298 298 300 298 300 314 14 20 353 254 249 269 285 289 288 289 285 276 273 271 272 273 269 279 278 260 252 246 250 249 246 249 246 247 247 238 225 236
289 293 282 291 292 296 297 306 312 311 318 14 332 331 326 249 288 297 274 270 281 287 293 300 310 324 319 311 304 297 287 270 255 257 264 267 267 261 257 257 245 237 236
299 289 273 280 287 302 311 305 303 311 325 329 324 335 326 286 291 293 287 266 267 274 285 289 280 289 258 246 275 272 279 302 315 308 296 291 293 292 289 277 267 257 252
300 289 281 293 313 333 328 314 316 317 316 315 311 313 280 281 290 299 302 294 294 300 302 294 286 298 322 328 333 319 315 329 332 325 309 291 284 284 282 273 271 269 257
281 286 293 306 305 316 301 310 321 319 310 309 304 302 295 284 297 306 308 305 304 313 320 331 330 342 4 21 24 24 352 329 316 307 291 283 279 276 274 273 266 267 258
315 317 327 334 325 316 318 318 313 310 315 315 310 310 300 286 296 305 313 337 337 314 319 342 340 359 19 18 22 24 2 346 317 300 286 277 278 281 282 278 278 277 269
312 334 358 353 327 324 306 301 305 311 307 299 299 306 314 312 321 340 15 23 1 347 354 4 27 28 32 41 29 4 351 347 328 308 288 274 274 279 282 285 283 288 285
325 344 343 326 308 304 287 284 289 293 297 302 318 335 332 327 328 345 11 3 340 352 348 6 65 62 47 45 33 20 360 339 323 314 297 274 276 287 291 283 284 280 278
Height
1487 1490 1493 1495 1497 1499 1501 1503 1505 1507 1509 1510 1511 1512 1513 1513 1514 1515 1516 1517 1518 1519 1519 1520 1520 1521 1522 1522 1523 1523 1524 1524 1524 1524 1525 1525 1525 1525 1524 1524 1524 1524 1523
1484 1486 1489 1492 1494 1496 1498 1500 1502 1504 1505 1506 1507 1508 1509 1510 1511 1512 1513 1514 1515 1515 1516 1517 1517 1518 1518 1519 1519 1520 1520 1521 1521 1521 1521 1522 1522 1522 1522 1522 1521 1521 1521
1480 1483 1486 1488 1490 1492 1494 1496 1498 1500 1502 1503 1504 1504 1505 1506 1508 1509 1510 1510 1511 1512 1512 1513 1514 1514 1515 1515 1516 1516 1517 1517 1518 1518 1518 1519 1519 1519 1519 1519 1519 1519 1518
1477 1480 1483 1485 1487 1490 1491 1493 1495 1496 1498 1499 1500 1501 1501 1503 1504 1505 1506 1507 1508 1508 1509 1510 1510 1511 1511 1512 1512 1513 1513 1514 1514 1515 1515 1516 1516 1516 1516 1516 1516 1516 1516
1474 1477 1479 1482 1485 1487 1489 1490 1491 1493 1494 1495 1496 1497 1498 1499 1500 1501 1502 1503 1503 1504 1505 1505 1506 1507 1507 1508 1508 1508 1509 1510 1510 1511 1511 1512 1512 1512 1512 1512 1513 1512 1512
1473 1475 1477 1479 1481 1483 1485 1486 1488 1489 1490 1491 1492 1493 1494 1495 1496 1497 1498 1498 1499 1499 1500 1501 1501 1502 1502 1503 1504 1504 1505 1506 1506 1506 1507 1507 1507 1508 1509 1509 1509 1509 1508
1471 1473 1475 1477 1478 1480 1481 1482 1483 1485 1486 1487 1488 1489 1489 1491 1492 1493 1493 1494 1494 1495 1496 1496 1497 1497 1498 1499 1499 1500 1500 1501 1502 1502 1503 1503 1503 1504 1505 1505 1505 1505 1505
1470 1472 1473 1474 1475 1477 1478 1479 1480 1482 1483 1484 1484 1485 1486 1487 1488 1488 1489 1490 1490 1490 1491 1492 1492 1493 1493 1494 1494 1494 1495 1495 1496 1497 1498 1498 1499 1500 1500 1501 1501 1501 1501
1470 1470 1471 1472 1473 1474 1475 1476 1477 1478 1478 1479 1480 1481 1481 1482 1483 1483 1484 1485 1485 1485 1486 1487 1488 1488 1489 1489 1489 1490 1490 1491 1492 1492 1493 1494 1494 1494 1495 1496 1496 1497 1496
1468 1469 1470 1470 1471 1471 1472 1474 1474 1474 1474 1475 1476 1477 1478 1478 1479 1479 1480 1480 1480 1481 1481 1482 1483 1483 1484 1484 1485 1485 1485 1486 1487 1487 1488 1488 1489 1489 1490 1491 1491 1492 1492
1467 1468 1468 1468 1469 1469 1470 1470 1471 1471 1471 1472 1473 1473 1474 1474 1475 1475 1475 1476 1476 1477 1477 1478 1478 1478 1479 1480 1480 1481 1481 1482 1483 1483 1483 1484 1484 1484 1485 1485 1486 1487 1487
1465 1465 1466 1466 1467 1468 1468 1468 1468 1468 1468 1468 1469 1470 1470 1471 1471 1471 1471 1472 1472 1472 1473 1473 1474 1474 1475 1475 1476 1477 1478 1479 1479 1479 1479 1479 1479 1479 1480 1481 1481 1482 1483
1463 1464 1464 1464 1465 1465 1465 1466 1466 1466 1467 1467 1467 1467 1467 1467 1467 1467 1467 1468 1467 1468 1468 1469 1469 1470 1470 1471 1472 1472 1473 1474 1474 1474 1474 1474 1475 1475 1476 1477 1477 1478 1479
1462 1462 1462 1462 1462 1463 1463 1463 1464 1464 1464 1464 1464 1465 1465 1465 1464 1463 1463 1463 1463 1463 1464 1463 1464 1465 1466 1467 1467 1468 1468 1469 1469 1469 1470 1470 1471 1471 1472 1472 1473 1473 1474
1460 1460 1460 1460 1460 1461 1461 1461 1461 1461 1461 1462 1462 1462 1462 1461 1461 1461 1460 1460 1459 1459 1458 1459 1459 1461 1461 1462 1463 1464 1464 1465 1465 1465 1466 1467 1467 1467 1468 1468 1469 1470 1470
1457 1458 1458 1459 1459 1458 1458 1458 1458 1459 1458 1458 1459 1459 1458 1458 1458 1457 1457 1457 1456 1455 1454 1454 1455 1456 1457 1458 1459 1459 1460 1460 1461 1462 1462 1462 1463 1463 1464 1465 1465 1465 1466
1456 1456 1456 1457 1457 1456 1456 1456 1456 1456 1456 1456 1456 1456 1455 1455 1454 1454 1453 1452 1451 1450 1449 1449 1450 1452 1453 1454 1455 1455 1456 1457 1457 1458 1458 1458 1459 1459 1460 1461 1461 1462 1462
1454 1455 1455 1455 1455 1455 1454 1454 1454 1454 1453 1453 1453 1453 1452 1451 1451 1450 1449 1449 1448 1447 1446 1446 1447 1448 1449 1450 1451 1451 1452 1453 1453 1454 1454 1454 1455 1456 1456 1457 1458 1458 1458
1453 1453 1453 1453 1453 1453 1453 1452 1452 1451 1451 1450 1450 1450 1449 1448 1448 1447 1446 1446 1445 1445 1444 1444 1444 1445 1445 1446 1447 1448 1449 1449 1450 1450 1451 1451 1452 1452 1453 1454 1454 1455 1455
1451 1451 1452 1451 1451 1451 1451 1450 1450 1449 1448 1448 1447 1447 1447 1446 1445 1445 1444 1443 1443 1443 1442 1441 1441 1441 1442 1443 1444 1444 1445 1446 1446 1447 1447 1448 1448 1449 1450 1450 1451 1451 1451
1450 1449 1449 1449 1449 1449 1449 1448 1448 1447 1447 1446 1446 1445 1445 1444 1443 1443 1442 1441 1441 1441 1440 1440 1440 1440 1440 1441 1441 1441 1442 1442 1443 1443 1444 1444 1445 1446 1446 1447 1447 1448 1448
1447 1447 1447 1447 1447 1447 1446 1446 1446 1445 1445 1445 1444 1444 1443 1442 1441 1440 1440 1439 1439 1439 1438 1438 1438 1438 1438 1438 1438 1439 1439 1439 1440 1440 1440 1441 1441 1442 1443 1443 1444 1444 1444
1445 1445 1445 1445 1445 1445 1444 1444 1444 1444 1443 1443 1442 1442 1441 1440 1439 1438 1438 1437 1437 1437 1436 1436 1436 1436 1436 1436 1436 1436 1436 1436 1436 1436 1436 1437 1437 1438 1438 1439 1439 1440 1440
1443 1443 1443 1443 1443 1443 1442 1442 1442 1442 1441 1441 1440 1439 1438 1438 1437 1437 1436 1436 1435 1435 1434 1434 1434 1434 1433 1433 1433 1433 1433 1432 1432 1432 1432 1432 1433 1434 1434 1435 1435 1436 1436
1441 1441 1441 1441 1441 1441 1441 1441 1440 1439 1439 1439 1438 1437 1437 1436 1436 1435 1434 1434 1433 1433 1432 1432 1431 1431 1430 1430 1429 1429 1429 1428 1428 1428 1428 1429 1429 1429 1430 1430 1431 1431 1432
1440 1440 1440 1440 1439 1439 1439 1439 1438 1438 1437 1437 1436 1436 1435 1434 1434 1433 1432 1432 1431 1431 1430 1429 1429 1428 1427 1427 1426 1426 1425 1425 1424 1424 1424 1424 1425 1425 1425 1426 1427 1427 1428